| time (UTC) | temp F | wind direction | speed knots | gust knots | rain 1hr in | rain 24hr in | rain mn in | humidity % | barometer mb |
| 20260902212528 | 96 | 235 | 1.7 | 2.6 | 0.00 | 0.00 | 0.00 | 51 | 1016.4 |
| 20260902212023 | 96 | 188 | 2.6 | 3.5 | 0.00 | 0.00 | 0.00 | 52 | 1016.3 |
| 20260902211520 | 95 | 197 | 0.9 | 2.6 | 0.00 | 0.00 | 0.00 | 52 | 1016.4 |
| 20260902211014 | 96 | 216 | 0.0 | 3.5 | 0.00 | 0.00 | 0.00 | 53 | 1016.5 |
| 20260902210514 | 96 | 169 | 1.7 | 2.6 | 0.00 | 0.00 | 0.00 | 52 | 1016.4 |
| 20260902210014 | 96 | 201 | 0.0 | 3.5 | 0.00 | 0.00 | 0.00 | 52 | 1016.3 |
| 20260902205508 | 95 | 186 | 0.9 | 5.2 | 0.00 | 0.00 | 0.00 | 53 | 1016.5 |
| 20260902205004 | 95 | 170 | 4.3 | 6.1 | 0.00 | 0.00 | 0.00 | 53 | 1016.5 |
| 20260902204503 | 94 | 264 | 0.0 | 2.6 | 0.00 | 0.00 | 0.00 | 54 | 1016.5 |
| 20260902203958 | 96 | 196 | 0.9 | 2.6 | 0.00 | 0.00 | 0.00 | 51 | 1016.6 |
| 20260902203454 | 96 | 239 | 1.7 | 3.5 | 0.00 | 0.00 | 0.00 | 52 | 1016.8 |
| 20260902202952 | 96 | 194 | 1.7 | 1.7 | 0.00 | 0.00 | 0.00 | 51 | 1016.6 |
| 20260902202449 | 96 | 201 | 1.7 | 2.6 | 0.00 | 0.00 | 0.00 | 51 | 1016.6 |
| 20260902201945 | 96 | 193 | 0.9 | 0.9 | 0.00 | 0.00 | 0.00 | 52 | 1016.4 |
| 20260902201440 | 95 | 234 | 0.0 | 1.7 | 0.00 | 0.00 | 0.00 | 52 | 1016.7 |
| 20260902200940 | 96 | 204 | 3.5 | 3.5 | 0.00 | 0.00 | 0.00 | 51 | 1016.8 |
| 20260902200435 | 96 | 4 | 0.9 | 1.7 | 0.00 | 0.00 | 0.00 | 52 | 1016.8 |
| 20260902195931 | 97 | 222 | 0.9 | 1.7 | 0.00 | 0.00 | 0.00 | 50 | 1016.8 |
| 20260902195426 | 97 | 183 | 0.9 | 2.6 | 0.00 | 0.00 | 0.00 | 50 | 1017.0 |
| 20260902194926 | 96 | 237 | 0.9 | 6.1 | 0.00 | 0.00 | 0.00 | 52 | 1017.0 |
| 20260902194426 | 96 | 246 | 2.6 | 5.2 | 0.00 | 0.00 | 0.00 | 50 | 1017.0 |
| 20260902193920 | 97 | 316 | 0.9 | 2.6 | 0.00 | 0.00 | 0.00 | 51 | 1017.2 |
| 20260902193417 | 96 | 170 | 0.0 | 2.6 | 0.00 | 0.00 | 0.00 | 53 | 1017.0 |
| 20260902192915 | 96 | 210 | 0.9 | 1.7 | 0.00 | 0.00 | 0.00 | 50 | 1017.1 |
| 20260902192414 | 96 | 200 | 2.6 | 5.2 | 0.00 | 0.00 | 0.00 | 51 | 1017.2 |
| 20260902191913 | 96 | 327 | 1.7 | 5.2 | 0.00 | 0.00 | 0.00 | 51 | 1017.3 |
| 20260902191409 | 96 | 51 | 0.9 | 2.6 | 0.00 | 0.00 | 0.00 | 51 | 1017.3 |
| 20260902190904 | 95 | 305 | 0.0 | 1.7 | 0.00 | 0.00 | 0.00 | 53 | 1017.4 |
| 20260902190405 | 95 | 284 | 1.7 | 2.6 | 0.00 | 0.00 | 0.00 | 52 | 1017.6 |
| 20260902185900 | 95 | 26 | 0.0 | 1.7 | 0.00 | 0.00 | 0.00 | 52 | 1017.5 |
| 20260902185356 | 95 | 150 | 0.9 | 2.6 | 0.00 | 0.00 | 0.00 | 52 | 1017.4 |
| 20260902184851 | 95 | 197 | 1.7 | 2.6 | 0.00 | 0.00 | 0.00 | 53 | 1017.5 |
| 20260902184346 | 95 | 69 | 0.9 | 2.6 | 0.00 | 0.00 | 0.00 | 54 | 1017.5 |
| 20260902183842 | 95 | 205 | 0.0 | 2.6 | 0.00 | 0.00 | 0.00 | 53 | 1017.5 |
| 20260902183338 | 95 | 184 | 2.6 | 3.5 | 0.00 | 0.00 | 0.00 | 53 | 1017.7 |
| 20260902182834 | 95 | 209 | 2.6 | 5.2 | 0.00 | 0.00 | 0.00 | 54 | 1017.6 |
| 20260902182330 | 94 | 284 | 3.5 | 5.2 | 0.00 | 0.00 | 0.00 | 53 | 1017.7 |
| 20260902181827 | 95 | 253 | 0.9 | 3.5 | 0.00 | 0.00 | 0.00 | 54 | 1017.5 |
| 20260902181322 | 94 | 207 | 1.7 | 2.6 | 0.00 | 0.00 | 0.00 | 53 | 1017.7 |
| 20260902180821 | 93 | 247 | 0.0 | 2.6 | 0.00 | 0.00 | 0.00 | 53 | 1017.6 |
| 20260902180317 | 92 | 311 | 0.0 | 2.6 | 0.00 | 0.00 | 0.00 | 56 | 1017.8 |
| 20260902175812 | 93 | 198 | 0.0 | 2.6 | 0.00 | 0.00 | 0.00 | 55 | 1017.9 |
| 20260902175308 | 93 | 276 | 0.9 | 2.6 | 0.00 | 0.00 | 0.00 | 55 | 1017.8 |
| 20260902174803 | 91 | 267 | 0.9 | 2.6 | 0.00 | 0.00 | 0.00 | 59 | 1017.9 |
| 20260902174300 | 93 | 194 | 1.7 | 2.6 | 0.00 | 0.00 | 0.00 | 56 | 1018.0 |
| 20260902173755 | 94 | 166 | 1.7 | 7.8 | 0.00 | 0.00 | 0.00 | 57 | 1018.0 |
| 20260902173255 | 93 | 313 | 1.7 | 1.7 | 0.00 | 0.00 | 0.00 | 57 | 1018.1 |
| 20260902172749 | 93 | 206 | 1.7 | 2.6 | 0.00 | 0.00 | 0.00 | 57 | 1018.1 |
| 20260902172249 | 93 | 204 | 3.5 | 5.2 | 0.00 | 0.00 | 0.00 | 58 | 1018.2 |
| 20260902171744 | 93 | 214 | 1.7 | 1.7 | 0.00 | 0.00 | 0.00 | 58 | 1018.1 |
| 20260902171239 | 93 | 188 | 1.7 | 5.2 | 0.00 | 0.00 | 0.00 | 59 | 1018.1 |
| 20260902170735 | 93 | 194 | 2.6 | 3.5 | 0.00 | 0.00 | 0.00 | 59 | 1018.1 |
| 20260902170231 | 92 | 202 | 0.9 | 3.5 | 0.00 | 0.00 | 0.00 | 61 | 1018.1 |
| 20260902165726 | 92 | 218 | 1.7 | 2.6 | 0.00 | 0.00 | 0.00 | 62 | 1018.4 |
| 20260902165220 | 92 | 194 | 0.0 | 2.6 | 0.00 | 0.00 | 0.00 | 62 | 1018.3 |
| 20260902164721 | 91 | 284 | 1.7 | 3.5 | 0.00 | 0.00 | 0.00 | 62 | 1018.4 |
| 20260902164220 | 91 | 171 | 1.7 | 3.5 | 0.00 | 0.00 | 0.00 | 61 | 1018.5 |
| 20260902163715 | 91 | 254 | 1.7 | 3.5 | 0.00 | 0.00 | 0.00 | 62 | 1018.4 |
| 20260902163215 | 91 | 193 | 0.9 | 2.6 | 0.00 | 0.00 | 0.00 | 62 | 1018.4 |
| 20260902162714 | 91 | 54 | 0.0 | 2.6 | 0.00 | 0.00 | 0.00 | 62 | 1018.3 |
| 20260902162208 | 91 | 181 | 1.7 | 2.6 | 0.00 | 0.00 | 0.00 | 61 | 1018.4 |
| 20260902161703 | 91 | 270 | 0.9 | 1.7 | 0.00 | 0.00 | 0.00 | 63 | 1018.3 |
| 20260902161159 | 90 | 311 | 0.9 | 2.6 | 0.00 | 0.00 | 0.00 | 64 | 1018.4 |
| 20260902160656 | 90 | 191 | 0.9 | 2.6 | 0.00 | 0.00 | 0.00 | 64 | 1018.5 |
| 20260902160150 | 90 | 172 | 0.9 | 1.7 | 0.00 | 0.00 | 0.00 | 65 | 1018.7 |
| 20260902155649 | 89 | 173 | 1.7 | 2.6 | 0.00 | 0.00 | 0.00 | 65 | 1018.6 |
| 20260902155147 | 89 | 246 | 0.0 | 2.6 | 0.00 | 0.00 | 0.00 | 66 | 1018.7 |
| 20260902154643 | 89 | 285 | 0.9 | 1.7 | 0.00 | 0.00 | 0.00 | 68 | 1018.7 |
| 20260902154137 | 89 | 268 | 0.0 | 2.6 | 0.00 | 0.00 | 0.00 | 69 | 1018.6 |
| 20260902153637 | 89 | 198 | 0.9 | 1.7 | 0.00 | 0.00 | 0.00 | 67 | 1018.6 |
| 20260902153132 | 89 | 201 | 1.7 | 2.6 | 0.00 | 0.00 | 0.00 | 68 | 1018.8 |
| 20260902152628 | 88 | 131 | 0.0 | 0.0 | 0.00 | 0.00 | 0.00 | 69 | 1018.8 |
| 20260902152123 | 88 | 184 | 1.7 | 2.6 | 0.00 | 0.00 | 0.00 | 68 | 1019.0 |
| 20260902151619 | 87 | 183 | 0.9 | 1.7 | 0.00 | 0.00 | 0.00 | 70 | 1018.6 |
| 20260902151118 | 87 | 3 | 0.0 | 2.6 | 0.00 | 0.00 | 0.00 | 71 | 1018.8 |
| 20260902150614 | 87 | 285 | 0.9 | 3.5 | 0.00 | 0.00 | 0.00 | 70 | 1019.0 |
| 20260902150110 | 87 | 188 | 0.0 | 0.9 | 0.00 | 0.00 | 0.00 | 71 | 1018.8 |
| 20260902145610 | 87 | 175 | 0.9 | 2.6 | 0.00 | 0.00 | 0.00 | 71 | 1018.9 |
| 20260902145109 | 87 | 190 | 0.9 | 1.7 | 0.00 | 0.00 | 0.00 | 72 | 1018.8 |
| 20260902144606 | 86 | 187 | 0.9 | 1.7 | 0.00 | 0.00 | 0.00 | 71 | 1018.8 |
| 20260902144106 | 86 | 229 | 0.0 | 0.9 | 0.00 | 0.00 | 0.00 | 72 | 1018.8 |
| 20260902143601 | 85 | 117 | 0.9 | 0.9 | 0.00 | 0.00 | 0.00 | 73 | 1019.0 |
| 20260902143056 | 85 | 35 | 0.9 | 2.6 | 0.00 | 0.00 | 0.00 | 73 | 1018.9 |
| 20260902142552 | 85 | 350 | 0.0 | 0.9 | 0.00 | 0.00 | 0.00 | 74 | 1018.6 |
| 20260902142048 | 84 | 208 | 0.0 | 1.7 | 0.00 | 0.00 | 0.00 | 74 | 1018.8 |
| 20260902141548 | 84 | 316 | 0.9 | 1.7 | 0.00 | 0.00 | 0.00 | 74 | 1018.8 |
| 20260902141043 | 84 | 189 | 0.9 | 0.9 | 0.00 | 0.00 | 0.00 | 74 | 1018.6 |
| 20260902140537 | 84 | 12 | 1.7 | 1.7 | 0.00 | 0.00 | 0.00 | 74 | 1018.6 |
| 20260902140033 | 84 | 33 | 0.0 | 2.6 | 0.00 | 0.00 | 0.00 | 75 | 1018.8 |
| 20260902135532 | 83 | 311 | 0.0 | 1.7 | 0.00 | 0.00 | 0.00 | 74 | 1018.8 |
| 20260902135027 | 83 | 265 | 0.0 | 2.6 | 0.00 | 0.00 | 0.00 | 74 | 1018.8 |
| 20260902134523 | 84 | 329 | 0.0 | 1.7 | 0.00 | 0.00 | 0.00 | 74 | 1018.9 |
| 20260902134023 | 83 | 340 | 0.0 | 0.9 | 0.00 | 0.00 | 0.00 | 75 | 1018.8 |
| 20260902133524 | 83 | 294 | 0.0 | 0.9 | 0.00 | 0.00 | 0.00 | 76 | 1018.7 |
| 20260902133024 | 82 | 191 | 0.9 | 1.7 | 0.00 | 0.00 | 0.00 | 75 | 1018.7 |
| 20260902132519 | 82 | 197 | 0.0 | 0.9 | 0.00 | 0.00 | 0.00 | 77 | 1018.6 |
| 20260902132014 | 82 | 6 | 0.0 | 0.9 | 0.00 | 0.00 | 0.00 | 77 | 1018.5 |
| 20260902131511 | 81 | 211 | 0.0 | 0.9 | 0.00 | 0.00 | 0.00 | 78 | 1018.8 |
| 20260902131010 | 81 | 337 | 0.0 | 0.9 | 0.00 | 0.00 | 0.00 | 79 | 1018.7 |
| 20260902130506 | 81 | 226 | 0.9 | 1.7 | 0.00 | 0.00 | 0.00 | 78 | 1018.6 |
| 20260902130001 | 80 | 211 | 0.0 | 2.6 | 0.00 | 0.00 | 0.00 | 79 | 1018.6 |
| 20260902125457 | 80 | 182 | 0.9 | 0.9 | 0.00 | 0.00 | 0.00 | 80 | 1018.6 |
| 20260902124952 | 80 | 192 | 0.0 | 0.9 | 0.00 | 0.00 | 0.00 | 80 | 1018.8 |
| 20260902124448 | 79 | 251 | 1.7 | 1.7 | 0.00 | 0.00 | 0.00 | 80 | 1018.6 |
| 20260902123943 | 79 | 209 | 0.0 | 0.0 | 0.00 | 0.00 | 0.00 | 82 | 1018.6 |
| 20260902123440 | 78 | 209 | 0.0 | 0.0 | 0.00 | 0.00 | 0.00 | 83 | 1018.6 |
| 20260902122938 | 77 | 202 | 0.0 | 0.9 | 0.00 | 0.00 | 0.00 | 86 | 1018.5 |
| 20260902122434 | 76 | 181 | 0.0 | 0.0 | 0.00 | 0.00 | 0.00 | 89 | 1018.5 |
| 20260902121929 | 75 | 181 | 0.0 | 0.0 | 0.00 | 0.00 | 0.00 | 90 | 1018.6 |
| 20260902121424 | 75 | 181 | 0.0 | 0.0 | 0.00 | 0.00 | 0.00 | 92 | 1018.5 |
| 20260902120924 | 75 | 181 | 0.0 | 0.0 | 0.00 | 0.00 | 0.00 | 90 | 1018.3 |
| 20260902120421 | 75 | 181 | 0.0 | 0.0 | 0.00 | 0.00 | 0.00 | 90 | 1018.6 |
| 20260902115920 | 75 | 181 | 0.0 | 0.0 | 0.00 | 0.00 | 0.00 | 90 | 1018.5 |
| 20260902115416 | 75 | 181 | 0.0 | 0.0 | 0.00 | 0.00 | 0.00 | 90 | 1018.2 |
| 20260902114913 | 75 | 181 | 0.0 | 0.0 | 0.00 | 0.00 | 0.00 | 90 | 1018.3 |
| 20260902114408 | 75 | 181 | 0.0 | 0.0 | 0.00 | 0.00 | 0.00 | 90 | 1018.2 |
| 20260902113903 | 75 | 181 | 0.0 | 0.0 | 0.00 | 0.00 | 0.00 | 90 | 1018.1 |
| 20260902113359 | 74 | 181 | 0.0 | 0.0 | 0.00 | 0.00 | 0.00 | 92 | 1018.1 |
| 20260902112858 | 74 | 181 | 0.0 | 0.0 | 0.00 | 0.00 | 0.00 | 92 | 1018.0 |
| 20260902112354 | 75 | 181 | 0.0 | 0.0 | 0.00 | 0.00 | 0.00 | 91 | 1018.0 |
| 20260902111850 | 75 | 181 | 0.0 | 0.9 | 0.00 | 0.00 | 0.00 | 89 | 1018.0 |
| 20260902111346 | 75 | 181 | 0.0 | 0.9 | 0.00 | 0.00 | 0.00 | 89 | 1017.8 |
| 20260902110841 | 75 | 181 | 0.0 | 0.9 | 0.00 | 0.00 | 0.00 | 89 | 1017.9 |
| 20260902110337 | 75 | 181 | 0.0 | 0.9 | 0.00 | 0.00 | 0.00 | 89 | 1017.8 |
| 20260902105837 | 75 | 181 | 0.0 | 0.0 | 0.00 | 0.00 | 0.00 | 90 | 1017.8 |
| 20260902105332 | 73 | 181 | 0.0 | 0.0 | 0.00 | 0.00 | 0.00 | 95 | 1017.8 |
| 20260902104827 | 73 | 181 | 0.0 | 0.0 | 0.00 | 0.00 | 0.00 | 95 | 1018.0 |
| 20260902104324 | 73 | 181 | 0.0 | 0.0 | 0.00 | 0.00 | 0.00 | 95 | 1017.9 |
| 20260902103823 | 73 | 181 | 0.0 | 0.0 | 0.00 | 0.00 | 0.00 | 95 | 1018.0 |
| 20260902103318 | 73 | 181 | 0.0 | 0.0 | 0.00 | 0.00 | 0.00 | 95 | 1017.9 |
| 20260902102814 | 73 | 181 | 0.0 | 0.0 | 0.00 | 0.00 | 0.00 | 95 | 1017.9 |
| 20260902102312 | 73 | 181 | 0.0 | 0.0 | 0.00 | 0.00 | 0.00 | 94 | 1017.9 |
| 20260902101807 | 73 | 181 | 0.0 | 0.0 | 0.00 | 0.00 | 0.00 | 94 | 1018.0 |
| 20260902101301 | 74 | 181 | 0.0 | 0.0 | 0.00 | 0.00 | 0.00 | 94 | 1018.0 |
| 20260902100801 | 74 | 181 | 0.0 | 0.0 | 0.00 | 0.00 | 0.00 | 94 | 1018.0 |
| 20260902100300 | 74 | 181 | 0.0 | 0.0 | 0.00 | 0.00 | 0.00 | 93 | 1018.0 |
| 20260902095756 | 74 | 181 | 0.0 | 0.0 | 0.00 | 0.00 | 0.00 | 93 | 1017.9 |
| 20260902095256 | 74 | 181 | 0.0 | 0.0 | 0.00 | 0.00 | 0.00 | 93 | 1017.9 |
| 20260902094750 | 75 | 181 | 0.0 | 0.0 | 0.00 | 0.00 | 0.00 | 92 | 1017.8 |
| 20260902094247 | 75 | 181 | 0.0 | 0.0 | 0.00 | 0.00 | 0.00 | 92 | 1017.8 |
| 20260902093746 | 75 | 181 | 0.0 | 0.0 | 0.00 | 0.00 | 0.00 | 91 | 1017.9 |
| 20260902093241 | 75 | 181 | 0.0 | 0.9 | 0.00 | 0.00 | 0.00 | 89 | 1017.8 |
| 20260902092740 | 74 | 178 | 0.0 | 0.0 | 0.00 | 0.00 | 0.00 | 91 | 1017.9 |
| 20260902092236 | 74 | 178 | 0.0 | 0.0 | 0.00 | 0.00 | 0.00 | 93 | 1017.8 |
| 20260902091735 | 74 | 178 | 0.0 | 0.0 | 0.00 | 0.00 | 0.00 | 93 | 1017.7 |
| 20260902091232 | 74 | 178 | 0.0 | 0.0 | 0.00 | 0.00 | 0.00 | 93 | 1017.6 |
| 20260902090728 | 74 | 178 | 0.0 | 0.0 | 0.00 | 0.00 | 0.00 | 92 | 1017.8 |
| 20260902090227 | 74 | 178 | 0.0 | 0.0 | 0.00 | 0.00 | 0.00 | 92 | 1017.5 |
| 20260902085721 | 74 | 178 | 0.0 | 0.0 | 0.00 | 0.00 | 0.00 | 93 | 1017.5 |
| 20260902085216 | 74 | 178 | 0.0 | 0.0 | 0.00 | 0.00 | 0.00 | 93 | 1017.6 |
| 20260902084712 | 74 | 178 | 0.0 | 0.0 | 0.00 | 0.00 | 0.00 | 93 | 1017.6 |
| 20260902084208 | 74 | 178 | 0.0 | 0.0 | 0.00 | 0.00 | 0.00 | 92 | 1017.4 |
| 20260902083703 | 74 | 178 | 0.0 | 0.0 | 0.00 | 0.00 | 0.00 | 92 | 1017.2 |
| 20260902083202 | 74 | 178 | 0.0 | 0.0 | 0.00 | 0.00 | 0.00 | 92 | 1017.4 |
| 20260902082657 | 74 | 178 | 0.0 | 0.0 | 0.00 | 0.00 | 0.00 | 92 | 1017.1 |
| 20260902082154 | 74 | 178 | 0.0 | 0.0 | 0.00 | 0.00 | 0.00 | 93 | 1017.1 |
| 20260902081650 | 74 | 178 | 0.0 | 0.0 | 0.00 | 0.00 | 0.00 | 93 | 1017.1 |
| 20260902081145 | 74 | 178 | 0.0 | 0.0 | 0.00 | 0.00 | 0.00 | 93 | 1017.2 |
| 20260902080640 | 74 | 178 | 0.0 | 0.0 | 0.00 | 0.00 | 0.00 | 93 | 1017.1 |
| 20260902080137 | 74 | 178 | 0.0 | 0.0 | 0.00 | 0.00 | 0.00 | 92 | 1017.3 |
| 20260902075637 | 74 | 178 | 0.0 | 0.0 | 0.00 | 0.00 | 0.00 | 92 | 1017.1 |
| 20260902075133 | 74 | 178 | 0.0 | 0.0 | 0.00 | 0.00 | 0.00 | 92 | 1017.1 |
| 20260902074628 | 74 | 178 | 0.0 | 0.0 | 0.00 | 0.00 | 0.00 | 93 | 1017.1 |
| 20260902074123 | 74 | 178 | 0.0 | 0.0 | 0.00 | 0.00 | 0.00 | 93 | 1017.1 |
| 20260902073618 | 75 | 178 | 0.0 | 0.0 | 0.00 | 0.00 | 0.00 | 92 | 1017.2 |
| 20260902073115 | 75 | 178 | 0.0 | 0.0 | 0.00 | 0.00 | 0.00 | 92 | 1017.2 |
| 20260902072610 | 75 | 178 | 0.0 | 0.0 | 0.00 | 0.00 | 0.00 | 91 | 1017.1 |
| 20260902072107 | 75 | 178 | 0.0 | 0.0 | 0.00 | 0.00 | 0.00 | 91 | 1017.0 |
| 20260902071607 | 76 | 178 | 0.0 | 0.0 | 0.00 | 0.00 | 0.00 | 90 | 1017.1 |
| 20260902071103 | 76 | 178 | 0.0 | 0.0 | 0.00 | 0.00 | 0.00 | 88 | 1017.2 |
| 20260902070558 | 76 | 178 | 0.0 | 0.9 | 0.00 | 0.00 | 0.00 | 88 | 1017.1 |
| 20260902070053 | 76 | 178 | 0.0 | 0.0 | 0.00 | 0.00 | 0.00 | 88 | 1017.1 |
| 20260902065552 | 76 | 178 | 0.0 | 0.0 | 0.00 | 0.00 | 0.00 | 88 | 1017.1 |
| 20260902065048 | 76 | 178 | 0.0 | 0.9 | 0.00 | 0.00 | 0.00 | 88 | 1017.2 |
| 20260902064544 | 76 | 178 | 0.0 | 0.0 | 0.00 | 0.00 | 0.00 | 88 | 1017.1 |
| 20260902064039 | 76 | 178 | 0.0 | 0.0 | 0.00 | 0.00 | 0.00 | 90 | 1017.2 |
| 20260902063539 | 76 | 178 | 0.0 | 0.0 | 0.00 | 0.00 | 0.00 | 90 | 1017.1 |
| 20260902063034 | 76 | 178 | 0.0 | 0.0 | 0.00 | 0.00 | 0.00 | 89 | 1017.2 |
| 20260902062532 | 77 | 178 | 0.0 | 0.0 | 0.00 | 0.00 | 0.00 | 89 | 1017.2 |
| 20260902062029 | 77 | 178 | 0.0 | 0.0 | 0.00 | 0.00 | 0.00 | 87 | 1017.1 |
| 20260902061528 | 78 | 178 | 0.0 | 0.0 | 0.00 | 0.00 | 0.00 | 86 | 1017.1 |
| 20260902061024 | 78 | 178 | 0.0 | 0.0 | 0.00 | 0.00 | 0.00 | 82 | 1017.1 |
| 20260902060520 | 79 | 178 | 0.0 | 0.0 | 0.00 | 0.00 | 0.00 | 82 | 1017.1 |
| 20260902060016 | 78 | 178 | 0.0 | 0.9 | 0.00 | 0.00 | 0.00 | 82 | 1017.2 |
| 20260902055512 | 78 | 178 | 0.0 | 0.0 | 0.00 | 0.00 | 0.00 | 83 | 1017.3 |
| 20260902055007 | 77 | 178 | 0.0 | 0.0 | 0.00 | 0.00 | 0.00 | 83 | 1017.1 |
| 20260902054508 | 77 | 178 | 0.0 | 0.0 | 0.00 | 0.00 | 0.00 | 84 | 1017.1 |
| 20260902054003 | 77 | 178 | 0.0 | 0.0 | 0.00 | 0.00 | 0.00 | 85 | 1017.0 |
| 20260902053458 | 77 | 178 | 0.0 | 0.0 | 0.00 | 0.00 | 0.00 | 85 | 1017.2 |
| 20260902052957 | 77 | 178 | 0.0 | 0.0 | 0.00 | 0.00 | 0.00 | 86 | 1017.3 |
| 20260902052452 | 77 | 178 | 0.0 | 0.0 | 0.00 | 0.00 | 0.00 | 86 | 1017.2 |
| 20260902051948 | 77 | 178 | 0.0 | 0.0 | 0.00 | 0.00 | 0.00 | 86 | 1017.4 |
| 20260902051442 | 77 | 178 | 0.0 | 0.0 | 0.00 | 0.00 | 0.00 | 87 | 1017.3 |
| 20260902050941 | 77 | 178 | 0.0 | 0.0 | 0.00 | 0.00 | 0.00 | 88 | 1017.3 |
| 20260902050441 | 77 | 178 | 0.0 | 0.0 | 0.00 | 0.00 | 0.00 | 85 | 1017.5 |
| 20260902045936 | 78 | 178 | 0.0 | 0.0 | 0.00 | 0.00 | 0.00 | 88 | 1017.3 |
| 20260902045432 | 78 | 178 | 0.0 | 0.0 | 0.00 | 0.00 | 0.00 | 88 | 1017.4 |
| 20260902044928 | 78 | 178 | 0.0 | 0.0 | 0.00 | 0.00 | 0.00 | 88 | 1017.4 |
| 20260902044423 | 78 | 178 | 0.0 | 0.0 | 0.00 | 0.00 | 0.00 | 87 | 1017.3 |
| 20260902043918 | 78 | 178 | 0.0 | 0.0 | 0.00 | 0.00 | 0.00 | 85 | 1017.3 |
| 20260902043413 | 79 | 178 | 0.0 | 0.0 | 0.00 | 0.00 | 0.00 | 82 | 1017.3 |
| 20260902042908 | 79 | 178 | 0.0 | 0.0 | 0.00 | 0.00 | 0.00 | 84 | 1017.3 |
| 20260902042408 | 80 | 178 | 0.0 | 0.0 | 0.00 | 0.00 | 0.00 | 82 | 1017.2 |
| 20260902041904 | 80 | 178 | 0.9 | 0.9 | 0.00 | 0.00 | 0.00 | 80 | 1017.2 |
| 20260902041403 | 81 | 178 | 0.0 | 0.0 | 0.00 | 0.00 | 0.00 | 78 | 1017.3 |
| 20260902040902 | 81 | 178 | 0.9 | 0.9 | 0.00 | 0.00 | 0.00 | 76 | 1017.3 |
| 20260902040357 | 82 | 178 | 0.0 | 0.9 | 0.00 | 0.00 | 0.00 | 75 | 1017.3 |
| 20260902035857 | 82 | 178 | 0.9 | 0.9 | 0.00 | 0.00 | 0.00 | 75 | 1017.3 |
| 20260902035352 | 82 | 177 | 0.9 | 0.9 | 0.00 | 0.00 | 0.00 | 75 | 1017.4 |
| 20260902034850 | 82 | 178 | 0.9 | 0.9 | 0.00 | 0.00 | 0.00 | 75 | 1017.4 |
| 20260902034346 | 82 | 177 | 0.9 | 0.9 | 0.00 | 0.00 | 0.00 | 75 | 1017.3 |
| 20260902033844 | 82 | 177 | 0.0 | 0.9 | 0.00 | 0.00 | 0.00 | 74 | 1017.3 |
| 20260902033339 | 82 | 177 | 0.9 | 0.9 | 0.00 | 0.00 | 0.00 | 75 | 1017.3 |
| 20260902032838 | 82 | 177 | 0.0 | 0.9 | 0.00 | 0.00 | 0.00 | 74 | 1017.3 |
| 20260902032338 | 82 | 177 | 0.0 | 0.9 | 0.00 | 0.00 | 0.00 | 75 | 1017.3 |
| 20260902031833 | 82 | 177 | 0.9 | 1.7 | 0.00 | 0.00 | 0.00 | 75 | 1017.2 |
| 20260902031330 | 82 | 177 | 0.9 | 0.9 | 0.00 | 0.00 | 0.00 | 75 | 1017.3 |
| 20260902030825 | 82 | 170 | 0.0 | 0.9 | 0.00 | 0.00 | 0.00 | 76 | 1017.4 |
| 20260902030325 | 82 | 170 | 0.9 | 0.9 | 0.00 | 0.00 | 0.00 | 74 | 1017.3 |
| 20260902025824 | 82 | 170 | 0.9 | 0.9 | 0.00 | 0.00 | 0.00 | 75 | 1017.1 |
| 20260902025321 | 82 | 170 | 0.9 | 0.9 | 0.00 | 0.00 | 0.00 | 76 | 1017.4 |
| 20260902024820 | 82 | 170 | 0.9 | 0.9 | 0.00 | 0.00 | 0.00 | 76 | 1017.2 |
| 20260902024316 | 83 | 170 | 0.9 | 0.9 | 0.00 | 0.00 | 0.00 | 73 | 1017.3 |
| 20260902023811 | 83 | 170 | 0.9 | 0.9 | 0.00 | 0.00 | 0.00 | 73 | 1017.4 |
| 20260902023307 | 83 | 170 | 0.9 | 0.9 | 0.00 | 0.00 | 0.00 | 73 | 1017.2 |
| 20260902022805 | 83 | 170 | 0.0 | 0.0 | 0.00 | 0.00 | 0.00 | 73 | 1017.2 |
| 20260902022301 | 84 | 169 | 0.0 | 0.0 | 0.00 | 0.00 | 0.00 | 72 | 1017.3 |
| 20260902021757 | 84 | 159 | 0.9 | 0.9 | 0.00 | 0.00 | 0.00 | 72 | 1017.4 |
| 20260902021256 | 84 | 168 | 0.0 | 0.9 | 0.00 | 0.00 | 0.00 | 71 | 1017.4 |
| 20260902020753 | 84 | 168 | 0.0 | 0.9 | 0.00 | 0.00 | 0.00 | 71 | 1017.1 |
| 20260902020249 | 84 | 172 | 0.9 | 1.7 | 0.00 | 0.00 | 0.00 | 71 | 1017.3 |
| 20260902015743 | 85 | 156 | 1.7 | 1.7 | 0.00 | 0.00 | 0.00 | 70 | 1017.2 |
| 20260902015240 | 85 | 184 | 1.7 | 1.7 | 0.00 | 0.00 | 0.00 | 69 | 1017.2 |
| 20260902014735 | 85 | 179 | 0.9 | 0.9 | 0.00 | 0.00 | 0.00 | 70 | 1017.2 |
| 20260902014232 | 85 | 177 | 0.9 | 0.9 | 0.00 | 0.00 | 0.00 | 70 | 1017.0 |
| 20260902013730 | 85 | 181 | 0.9 | 1.7 | 0.00 | 0.00 | 0.00 | 70 | 1017.1 |
| 20260902013226 | 85 | 181 | 0.9 | 1.7 | 0.00 | 0.00 | 0.00 | 70 | 1017.0 |
| 20260902012721 | 84 | 180 | 0.9 | 0.9 | 0.00 | 0.00 | 0.00 | 71 | 1017.2 |
| 20260902012217 | 84 | 176 | 0.9 | 1.7 | 0.00 | 0.00 | 0.00 | 72 | 1017.4 |
| 20260902011713 | 84 | 160 | 0.9 | 0.9 | 0.00 | 0.00 | 0.00 | 72 | 1017.0 |
| 20260902011212 | 83 | 161 | 0.9 | 0.9 | 0.00 | 0.00 | 0.00 | 74 | 1017.2 |
| 20260902010711 | 82 | 169 | 0.9 | 0.9 | 0.00 | 0.00 | 0.00 | 74 | 1017.0 |
| 20260902010208 | 82 | 190 | 0.0 | 0.9 | 0.00 | 0.00 | 0.00 | 75 | 1016.9 |
| 20260902005705 | 82 | 190 | 0.0 | 0.9 | 0.00 | 0.00 | 0.00 | 76 | 1016.9 |
| 20260902005201 | 82 | 191 | 0.0 | 0.9 | 0.00 | 0.00 | 0.00 | 76 | 1017.0 |
| 20260902004701 | 82 | 191 | 0.0 | 0.0 | 0.00 | 0.00 | 0.00 | 75 | 1016.9 |
| 20260902004156 | 82 | 191 | 0.0 | 0.9 | 0.00 | 0.00 | 0.00 | 76 | 1016.8 |
| 20260902003652 | 83 | 191 | 0.0 | 0.0 | 0.00 | 0.00 | 0.00 | 76 | 1016.9 |
| 20260902003147 | 83 | 191 | 0.0 | 0.0 | 0.00 | 0.00 | 0.00 | 75 | 1016.9 |
| 20260902002643 | 83 | 191 | 0.0 | 0.0 | 0.00 | 0.00 | 0.00 | 74 | 1016.8 |
| 20260902002142 | 84 | 191 | 0.0 | 0.9 | 0.00 | 0.00 | 0.00 | 73 | 1016.8 |
| 20260902001638 | 84 | 191 | 0.0 | 0.0 | 0.00 | 0.00 | 0.00 | 73 | 1017.0 |
| 20260902001132 | 84 | 191 | 0.0 | 0.0 | 0.00 | 0.00 | 0.00 | 72 | 1016.9 |
| 20260902000628 | 85 | 191 | 0.0 | 0.0 | 0.00 | 0.00 | 0.00 | 72 | 1017.0 |
| 20260902000128 | 85 | 191 | 0.0 | 0.0 | 0.00 | 0.00 | 0.00 | 72 | 1017.0 |
| 20260901235627 | 85 | 191 | 0.0 | 0.0 | 0.00 | 0.00 | 0.00 | 72 | 1017.1 |
| 20260901235123 | 86 | 191 | 0.0 | 0.9 | 0.00 | 0.00 | 0.00 | 70 | 1017.1 |
| 20260901234622 | 87 | 191 | 0.0 | 0.0 | 0.00 | 0.00 | 0.00 | 69 | 1017.1 |
| 20260901234117 | 87 | 191 | 0.0 | 0.9 | 0.00 | 0.00 | 0.00 | 66 | 1017.1 |
| 20260901233612 | 89 | 191 | 0.0 | 0.0 | 0.00 | 0.00 | 0.00 | 67 | 1017.0 |
| 20260901233108 | 90 | 191 | 0.0 | 0.9 | 0.00 | 0.00 | 0.00 | 59 | 1017.1 |
| 20260901232603 | 90 | 196 | 0.0 | 0.9 | 0.00 | 0.00 | 0.00 | 60 | 1017.1 |
| 20260901232103 | 91 | 190 | 0.0 | 0.0 | 0.00 | 0.00 | 0.00 | 57 | 1017.1 |
| 20260901231600 | 91 | 292 | 0.9 | 2.6 | 0.00 | 0.00 | 0.00 | 55 | 1017.0 |
| 20260901231056 | 91 | 201 | 0.9 | 1.7 | 0.00 | 0.00 | 0.00 | 55 | 1017.3 |
| 20260901230552 | 92 | 177 | 0.0 | 0.0 | 0.00 | 0.00 | 0.00 | 54 | 1017.1 |
| 20260901230051 | 92 | 187 | 1.7 | 3.5 | 0.00 | 0.00 | 0.00 | 54 | 1017.1 |
| 20260901225546 | 92 | 197 | 0.0 | 0.9 | 0.00 | 0.00 | 0.00 | 54 | 1017.2 |
| 20260901225046 | 93 | 190 | 0.9 | 0.9 | 0.00 | 0.00 | 0.00 | 54 | 1017.1 |
| 20260901224542 | 93 | 225 | 0.9 | 0.9 | 0.00 | 0.00 | 0.00 | 51 | 1017.1 |
| 20260901224038 | 93 | 151 | 0.9 | 0.9 | 0.00 | 0.00 | 0.00 | 51 | 1017.2 |
| 20260901223533 | 94 | 208 | 0.0 | 0.9 | 0.00 | 0.00 | 0.00 | 52 | 1017.2 |
| 20260901223029 | 94 | 196 | 0.0 | 1.7 | 0.00 | 0.00 | 0.00 | 52 | 1017.0 |
| 20260901222525 | 94 | 296 | 0.9 | 1.7 | 0.00 | 0.00 | 0.00 | 51 | 1017.1 |
| 20260901222020 | 94 | 194 | 0.9 | 1.7 | 0.00 | 0.00 | 0.00 | 51 | 1017.1 |
| 20260901221516 | 95 | 288 | 0.9 | 3.5 | 0.00 | 0.00 | 0.00 | 50 | 1017.0 |
| 20260901221012 | 95 | 277 | 0.0 | 2.6 | 0.00 | 0.00 | 0.00 | 51 | 1016.9 |
| 20260901220511 | 95 | 207 | 1.7 | 1.7 | 0.00 | 0.00 | 0.00 | 51 | 1016.9 |
| 20260901220010 | 95 | 192 | 0.9 | 1.7 | 0.00 | 0.00 | 0.00 | 51 | 1016.9 |
| 20260901215509 | 94 | 262 | 0.0 | 0.9 | 0.00 | 0.00 | 0.00 | 52 | 1016.9 |
| 20260901215008 | 95 | 196 | 0.9 | 3.5 | 0.00 | 0.00 | 0.00 | 52 | 1016.8 |
| 20260901214508 | 95 | 185 | 0.9 | 1.7 | 0.00 | 0.00 | 0.00 | 51 | 1016.9 |
| 20260901214003 | 95 | 227 | 1.7 | 2.6 | 0.00 | 0.00 | 0.00 | 49 | 1016.9 |
| 20260901213502 | 95 | 315 | 0.9 | 1.7 | 0.00 | 0.00 | 0.00 | 49 | 1016.8 |
| 20260901213001 | 95 | 322 | 0.9 | 1.7 | 0.00 | 0.00 | 0.00 | 51 | 1017.1 |